• In France
  • List of Countries
  • For 7 days
  • Water Temperature
  • Satellite Maps
  • Weather Map
  • Weather Widgets
  • user-avatar
    Login

    Hourly Weather Bogota

    Today, 20 May, Sunday

    Time Temperature Precipitation Wind Pressure Humidity
    00:00 +10°C° 0.6 mm 1 mps 549 mmHg 88%
    01:00 +10°C° 0 mm 1 mps 549 mmHg 87%
    02:00 +10°C° 0.3 mm 1 mps 549 mmHg 87%
    03:00 +10°C° 0.3 mm 1 mps 549 mmHg 86%
    04:00 +10°C° 0.3 mm 1 mps 549 mmHg 85%
    05:00 +10°C° 0.1 mm 1 mps 549 mmHg 84%
    06:00 +11°C° 0.1 mm 1 mps 550 mmHg 84%
    07:00 +11°C° 0.1 mm 1 mps 550 mmHg 83%
    08:00 +12°C° 0.1 mm 1 mps 551 mmHg 80%
    09:00 +13°C° 0.1 mm 1 mps 551 mmHg 78%
    10:00 +13°C° 0.1 mm 2 mps 552 mmHg 75%
    11:00 +14°C° 0.3 mm 2 mps 551 mmHg 75%
    12:00 +14°C° 0.3 mm 2 mps 551 mmHg 75%
    13:00 +15°C° 0.3 mm 2 mps 551 mmHg 74%
    14:00 +14°C° 0.3 mm 2 mps 550 mmHg 75%
    15:00 +14°C° 0.3 mm 2 mps 550 mmHg 76%
    16:00 +14°C° 0.3 mm 2 mps 549 mmHg 76%
    17:00 +13°C° 0.3 mm 2 mps 549 mmHg 79%
    18:00 +12°C° 0.3 mm 1 mps 549 mmHg 83%
    19:00 +11°C° 0.3 mm 1 mps 549 mmHg 86%
    20:00 +11°C° 0.2 mm 1 mps 549 mmHg 85%
    21:00 +11°C° 0.2 mm 1 mps 549 mmHg 85%
    22:00 +11°C° 0.2 mm 1 mps 550 mmHg 85%
    23:00 +10°C° 0.1 mm 1 mps 549 mmHg 84%

    Tomorrow, 21 May, Monday

    Time Temperature Precipitation Wind Pressure Humidity
    00:00 +10°C° 0.1 mm 1 mps 549 mmHg 84%
    01:00 +10°C° 0.1 mm 1 mps 549 mmHg 83%
    02:00 +10°C° 0.2 mm 1 mps 549 mmHg 83%
    03:00 +10°C° 0.2 mm 1 mps 548 mmHg 83%
    04:00 +10°C° 0.2 mm 1 mps 548 mmHg 82%
    05:00 +10°C° 0.2 mm 1 mps 549 mmHg 82%
    06:00 +10°C° 0.2 mm 0 mps 549 mmHg 82%
    07:00 +10°C° 0.2 mm 0 mps 550 mmHg 81%
    08:00 +12°C° 0.2 mm 1 mps 550 mmHg 77%
    09:00 +13°C° 0.2 mm 1 mps 551 mmHg 74%
    10:00 +14°C° 0.2 mm 2 mps 552 mmHg 70%
    11:00 +15°C° 0.1 mm 2 mps 551 mmHg 68%
    12:00 +15°C° 0.1 mm 2 mps 551 mmHg 66%
    13:00 +16°C° 0.1 mm 2 mps 551 mmHg 64%
    14:00 +16°C° 0.1 mm 1 mps 550 mmHg 65%
    15:00 +16°C° 0.1 mm 1 mps 550 mmHg 67%
    16:00 +15°C° 0.1 mm 1 mps 549 mmHg 69%
    17:00 +14°C° 0.2 mm 1 mps 549 mmHg 75%
    18:00 +12°C° 0.2 mm 1 mps 548 mmHg 81%
    19:00 +11°C° 0.2 mm 1 mps 548 mmHg 88%
    20:00 +11°C° 0.2 mm 1 mps 548 mmHg 87%
    21:00 +10°C° 0.2 mm 1 mps 549 mmHg 87%
    22:00 +10°C° 0.2 mm 1 mps 549 mmHg 87%
    23:00 +10°C° 0.1 mm 1 mps 549 mmHg 87%

    Day after tomorrow, 22 May, Tuesday

    Time Temperature Precipitation Wind Pressure Humidity
    00:00 +10°C° 0.1 mm 1 mps 549 mmHg 87%
    01:00 +9°C° 0.1 mm 1 mps 548 mmHg 87%
    02:00 +9°C° 0.1 mm 1 mps 548 mmHg 86%
    03:00 +10°C° 0.1 mm 1 mps 548 mmHg 85%
    04:00 +10°C° 0.1 mm 1 mps 548 mmHg 84%
    05:00 +10°C° 0.2 mm 1 mps 549 mmHg 82%
    06:00 +10°C° 0.2 mm 0 mps 549 mmHg 80%
    07:00 +10°C° 0.2 mm 0 mps 550 mmHg 78%
    08:00 +12°C° 0.3 mm 1 mps 551 mmHg 76%
    09:00 +13°C° 0.3 mm 1 mps 551 mmHg 73%
    10:00 +14°C° 0.3 mm 2 mps 552 mmHg 71%
    11:00 +15°C° 0.2 mm 2 mps 552 mmHg 69%
    12:00 +15°C° 0.2 mm 2 mps 551 mmHg 68%
    13:00 +16°C° 0.2 mm 2 mps 551 mmHg 67%
    14:00 +15°C° 0.7 mm 2 mps 550 mmHg 70%
    15:00 +15°C° 0.7 mm 1 mps 550 mmHg 73%
    16:00 +14°C° 0.7 mm 1 mps 549 mmHg 76%
    17:00 +13°C° 0.5 mm 1 mps 549 mmHg 80%
    18:00 +12°C° 0.5 mm 1 mps 549 mmHg 84%
    19:00 +11°C° 0.5 mm 1 mps 548 mmHg 88%
    20:00 +11°C° 0.2 mm 1 mps 549 mmHg 87%
    21:00 +11°C° 0.2 mm 1 mps 549 mmHg 86%
    22:00 +11°C° 0.2 mm 1 mps 550 mmHg 85%
    23:00 +10°C° 0.1 mm 1 mps 549 mmHg 84%

    23 May, Wednesday

    Time Temperature Precipitation Wind Pressure Humidity
    00:00 +10°C° 0.1 mm 1 mps 549 mmHg 84%
    01:00 +10°C° 0.1 mm 1 mps 549 mmHg 83%
    02:00 +10°C° 0.2 mm 1 mps 549 mmHg 83%
    03:00 +10°C° 0.2 mm 1 mps 549 mmHg 83%
    04:00 +10°C° 0.2 mm 1 mps 548 mmHg 83%
    05:00 +10°C° 0.3 mm 1 mps 549 mmHg 83%
    06:00 +11°C° 0.3 mm 1 mps 550 mmHg 82%
    07:00 +11°C° 0.3 mm 1 mps 550 mmHg 82%
    08:00 +12°C° 0.3 mm 1 mps 551 mmHg 80%
    09:00 +12°C° 0.3 mm 1 mps 551 mmHg 79%
    10:00 +13°C° 0.3 mm 1 mps 552 mmHg 77%
    11:00 +13°C° 0.2 mm 1 mps 551 mmHg 76%
    12:00 +14°C° 0.2 mm 2 mps 551 mmHg 74%
    13:00 +14°C° 0.2 mm 2 mps 551 mmHg 73%
    14:00 +14°C° 0.4 mm 2 mps 551 mmHg 74%
    15:00 +14°C° 0.4 mm 1 mps 550 mmHg 75%
    16:00 +14°C° 0.4 mm 1 mps 550 mmHg 76%
    17:00 +13°C° 0.5 mm 1 mps 550 mmHg 80%
    18:00 +12°C° 0.5 mm 1 mps 550 mmHg 84%
    19:00 +11°C° 0.5 mm 1 mps 550 mmHg 88%
    20:00 +11°C° 0.4 mm 1 mps 550 mmHg 87%
    21:00 +11°C° 0.4 mm 1 mps 550 mmHg 87%
    22:00 +10°C° 0.4 mm 0 mps 551 mmHg 87%
    23:00 +9°C° 0.6 mm 0 mps 550 mmHg 87%

    24 May, Thursday

    Time Temperature Precipitation Wind Pressure Humidity
    00:00 +9°C° 0.6 mm 0 mps 550 mmHg 88%
    01:00 +9°C° 0.6 mm 0 mps 549 mmHg 89%
    02:00 +9°C° 0.6 mm 0 mps 549 mmHg 90%
    03:00 +9°C° 0.6 mm 0 mps 549 mmHg 90%
    04:00 +9°C° 0.6 mm 0 mps 549 mmHg 91%
    05:00 +9°C° 1.2 mm 0 mps 550 mmHg 91%
    06:00 +9°C° 1.2 mm 0 mps 550 mmHg 91%
    07:00 +10°C° 1.2 mm 1 mps 551 mmHg 91%
    08:00 +11°C° 0.8 mm 1 mps 551 mmHg 90%
    09:00 +11°C° 0.8 mm 1 mps 551 mmHg 88%
    10:00 +12°C° 0.8 mm 1 mps 552 mmHg 87%
    11:00 +13°C° 0.4 mm 2 mps 552 mmHg 83%
    12:00 +13°C° 0.4 mm 2 mps 552 mmHg 79%
    13:00 +14°C° 0.4 mm 2 mps 551 mmHg 75%
    14:00 +14°C° 0.4 mm 2 mps 551 mmHg 76%
    15:00 +14°C° 0.4 mm 2 mps 550 mmHg 78%
    16:00 +14°C° 0.4 mm 1 mps 550 mmHg 79%
    17:00 +13°C° 0.4 mm 1 mps 550 mmHg 82%
    18:00 +12°C° 0.4 mm 1 mps 550 mmHg 85%
    19:00 +11°C° 0.4 mm 1 mps 550 mmHg 88%
    20:00 +11°C° 0.2 mm 1 mps 550 mmHg 87%
    21:00 +10°C° 0.2 mm 1 mps 550 mmHg 87%
    22:00 +10°C° 0.2 mm 1 mps 550 mmHg 86%
    23:00 +10°C° 0.3 mm 1 mps 550 mmHg 86%

    25 May, Friday

    Time Temperature Precipitation Wind Pressure Humidity
    00:00 +10°C° 0.3 mm 1 mps 550 mmHg 86%
    01:00 +10°C° 0.3 mm 1 mps 549 mmHg 86%
    02:00 +10°C° 0.3 mm 1 mps 549 mmHg 86%
    03:00 +10°C° 0.3 mm 1 mps 549 mmHg 87%
    04:00 +10°C° 0.3 mm 1 mps 549 mmHg 87%
    05:00 +10°C° 0.2 mm 1 mps 549 mmHg 85%
    06:00 +11°C° 0.2 mm 1 mps 550 mmHg 84%
    07:00 +11°C° 0.2 mm 1 mps 550 mmHg 83%
    08:00 +12°C° 0.1 mm 1 mps 551 mmHg 81%
    09:00 +13°C° 0.1 mm 1 mps 551 mmHg 79%
    10:00 +13°C° 0.1 mm 1 mps 552 mmHg 77%
    11:00 +14°C° 0.1 mm 2 mps 551 mmHg 75%
    12:00 +15°C° 0.1 mm 2 mps 551 mmHg 72%
    13:00 +15°C° 0.1 mm 2 mps 551 mmHg 69%
    14:00 +15°C° 0.2 mm 2 mps 550 mmHg 71%
    15:00 +15°C° 0.2 mm 2 mps 550 mmHg 72%
    16:00 +15°C° 0.2 mm 1 mps 549 mmHg 73%
    17:00 +14°C° 0.2 mm 1 mps 549 mmHg 78%
    18:00 +13°C° 0.2 mm 1 mps 549 mmHg 83%
    19:00 +11°C° 0.2 mm 1 mps 549 mmHg 88%
    20:00 +11°C° 0.2 mm 1 mps 549 mmHg 88%
    21:00 +11°C° 0.2 mm 1 mps 549 mmHg 88%
    22:00 +11°C° 0.2 mm 1 mps 550 mmHg 88%
    23:00 +9°C° 0.5 mm 0 mps 549 mmHg 89%
    Show more